Location: *
(49.3500°N, 12.6000°E)
Time: 04:24:29
(UTC+00:00)

HJ-1C - Pass Details

Date: 18 October 2019
Orbit: 433 x 449 km, 97.2° (Epoch: 18 November)

Event Time Altitude Azimuth Distance (km) Brightness Sun altitude
Exits shadow 18:14:15 63° 174° (S) 505 3.5 -20.3°
Maximum altitude 18:14:44 86° 252° (WSW) 455 3.3 -20.3°
Drops below altitude 10° 18:18:08 10° 347° (NNW) 1,581 6.4 -20.9°
Sets 18:20:10 0° 347° (NNW) 2,454 7.4 -21.2°
